Content
SEND FEEDBACK

Daily
Averages
Monthly
Summary
United States of America

SHELBURNE FALLS, MASSACHUSETTS


Home > North America > United States > Massachusetts
Elevation: 400 feet     Latitude: 42 36N     Longitude: 072 44W

WEATHER
 
SELECT A DAY
Number of Records: 212,612;   Date Range: 7/1/96 - 9/3/14
 
SHARE

PRINT THIS DATA

[ ← Previous Day ]
WEATHER ALMANAC - JANUARY 12, 2014
[ Next Day → ]
[ °C ]   °F
Weather ElementAverageHighLow
Temperature39.3 °F46 °F (12:52 am)35.1 °F (11:52 pm)
Dewpoint27.3 °F41 °F (12:52 am)21.9 °F (11:52 pm)
Humidity62.3 %83 % (12:52 am)55 % (4:52 pm)
Barometer29.66 in29.98 in (11:52 pm)29.33 in (12:52 am)
Wind Speed11.4 mph17.3 mph (4:52 am)
Wind Gust31.1 mph (5:52 am)
Weather ElementAverage
Visibility10 mi
Wind DirectionWSW (252.5 °)

Weather ElementTotal
Precipitation0.04 in
Heating Degree Days24.5 (Base 65)
Averaged from 24 records on January 12, 2014
WEATHER CONDITIONS BREAKOUT
WIND DIRECTION BREAKOUT
WEATHER BY HOUR - JANUARY 12, 2014
[ °C ]   °F
Local TimeTemperatureDewpointHumidityBarometerVisibilityWind DirectionWind SpeedGust SpeedPrecipitationEventsConditions
12:52 AM46.0 °F41.0 °F83 %29.33 in10.0 miWNW (290°)9.2 mph19.6 mph0.02 inOvercast
1:52 AM43.0 °F37.9 °F82 %29.37 in10.0 miWNW (290°)6.9 mph0.01 inRainLight Rain
2:52 AM43.0 °F35.1 °F74 %29.39 in10.0 miWest (280°)8.1 mph0.01 inPartly Cloudy
3:52 AM42.1 °F33.1 °F70 %29.40 in10.0 miWNW (300°)11.5 mph20.7 mphPartly Cloudy
4:52 AM42.1 °F32.0 °F67 %29.42 in10.0 miWest (280°)17.3 mph27.6 mphOvercast
5:52 AM39.9 °F27.0 °F60 %29.46 in10.0 miNW (310°)15.0 mph31.1 mphScattered Clouds
6:52 AM39.0 °F27.0 °F62 %29.48 in10.0 miVariable6.9 mphOvercast
7:52 AM39.0 °F27.0 °F62 %29.52 in10.0 miWNW (300°)12.7 mph26.5 mphOvercast
8:52 AM39.0 °F27.0 °F62 %29.56 in10.0 miWNW (290°)11.5 mph19.6 mphOvercast
9:52 AM39.0 °F27.0 °F62 %29.60 in10.0 miWNW (290°)11.5 mph20.7 mphOvercast
10:52 AM39.9 °F26.1 °F58 %29.62 in10.0 miNW (310°)17.3 mph25.3 mphOvercast
11:52 AM39.9 °F27.0 °F60 %29.62 in10.0 miWest (280°)15.0 mph26.5 mphOvercast
12:52 PM41.0 °F27.0 °F57 %29.64 in10.0 miWest (270°)5.8 mphMostly Cloudy
1:52 PM39.9 °F26.1 °F58 %29.68 in10.0 miWNW (290°)16.1 mph24.2 mphOvercast
2:52 PM39.9 °F26.1 °F58 %29.70 in10.0 miWNW (290°)13.8 mph21.9 mphOvercast
3:52 PM39.0 °F25.0 °F57 %29.76 in10.0 miWNW (300°)11.5 mph20.7 mphOvercast
4:52 PM37.9 °F23.0 °F55 %29.81 in10.0 miWNW (290°)13.8 mph29.9 mphOvercast
5:52 PM37.9 °F24.1 °F57 %29.86 in10.0 miWNW (290°)12.7 mph25.3 mphOvercast
6:52 PM37.0 °F23.0 °F57 %29.89 in10.0 miNorthOvercast
7:52 PM36.0 °F23.0 °F59 %29.91 in10.0 miWNW (300°)12.7 mph28.8 mphOvercast
8:52 PM36.0 °F23.0 °F59 %29.95 in10.0 miVariable4.6 mph20.7 mphOvercast
9:52 PM36.0 °F23.0 °F59 %29.96 in10.0 miWest (280°)6.9 mphOvercast
10:52 PM36.0 °F23.0 °F59 %29.97 in10.0 miWest (280°)15.0 mphOvercast
11:52 PM35.1 °F21.9 °F59 %29.98 in10.0 miWSW (250°)6.9 mphMostly Cloudy
Hourly data recorded from KORE, located miles away from Shelburne Falls, Massachusetts







STORIES FROM OUR PARTNERS